Regional Weather Roundup
Issued by NWS Cleveland, OH

Home | Current Version | Previous Version | Text Only | Print | Product List | Glossary Off
Versions: 1 2 3 4 5 6 7 8 9 10 11 12 13 14 15 16 17 18 19 20 21 22 23 24 25 26 27 28 29 30 31 32 33 34 35 36 37 38 39 40 41 42 43 44 45 46 47 48 49 50

000
ASUS41 KCLE 042302
RWRCLE
OHIO REGIONAL WEATHER ROUNDUP
NATIONAL WEATHER SERVICE CLEVELAND, OH
600 PM EST WED MAR 04 2015

NOTE: "FAIR" INDICATES FEW OR NO CLOUDS BELOW 12,000 FEET WITH NO
SIGNIFICANT WEATHER AND/OR OBSTRUCTIONS TO VISIBILITY.

OHZ001>008-015>018-024>027-034-035-043-044-050000-
   NORTHWEST OHIO

CITY           SKY/WX    TMP DP  RH WIND       PRES   REMARKS
DEFIANCE       NOT AVBL
FINDLAY        NOT AVBL
TOLEDO EXPRESS NOT AVBL
TOLEDO EXEC    NOT AVBL
LIMA           NOT AVBL
$$

OHZ009>014-019>023-028>033-038-089-050000-
   NORTHEAST OHIO

CITY           SKY/WX    TMP DP  RH WIND       PRES   REMARKS
CLE-HOPKINS    NOT AVBL
CLE-LAKEFRONT  NOT AVBL
CUY CO. ARPT   CLOUDY    34  28  80 W9G17     29.98R WCI  26
LORAIN-ELYRIA  NOT AVBL
ASHTABULA      NOT AVBL
AKRON-CANTON   NOT AVBL
WOOSTER        NOT AVBL
MANSFIELD      NOT AVBL
YOUNGSTOWN     NOT AVBL
$$

OHZ042-051>053-060>062-070>072-077>081-050000-
  SOUTHWEST OHIO

CITY           SKY/WX    TMP DP  RH WIND       PRES   REMARKS
CINC-COVINGTON LGT SNOW  30  28  93 NW15G22   30.05R VSB 1   WCI  19
CINC-LUNKEN    NOT AVBL
HAMILTON       NOT AVBL
DAYTON         SNOW      31  26  82 NW17      30.03R VSB 1/2 WCI  19
WRIGHT-PAT AFB LGT SNOW  32  27  80 NW12      30.01S WCI  23
DAYTON GENERAL LGT SNOW  31  28  89 NW10      30.01R VSB 3/4 WCI  22
WILMINGTON     NOT AVBL
$$

OHZ036-037-039>041-045>050-054>059-063>069-073>076-082>088-050000-
  CENTRAL AND SOUTHEAST OHIO

CITY           SKY/WX    TMP DP  RH WIND       PRES   REMARKS
COLUMBUS       NOT AVBL
OSU AIRPORT    NOT AVBL
BOLTON FIELD   NOT AVBL
RICKENBACK AFB NOT AVBL
NEWARK         NOT AVBL
MARION         CLOUDY    30  23  74 NW13      30.00R HAZE    WCI  20
LANCASTER      NOT AVBL
ZANESVILLE     NOT AVBL
NEW PHILLY     CLOUDY    37  27  65 NW9       29.97R
$$


USA.gov is the U.S. government's official web portal to all federal, state and local government web resources and services.